sat.trackr.live / text

‹ back to catalog

YAOGAN-31 01A

NORAD 43275 · 2018-034A

PAYLOAD ACTIVE UNKNOWN

§ Identity

Operator
Country
PRC
Launch date
2018-04-10
Launch site
JSC
Launch vehicle
Mass (kg)
RCS (m²)

External: N2YO · Heavens-Above · Gunter

§ Orbital elements

Epoch: 2026-05-25T04:06:41.023296Z

Period
107.03 min
Inclination
63.3927°
Eccentricity
0.0273418
Mean motion
13.45458322 rev/d
Perigee alt
884.8 km
Apogee alt
1,293.2 km
Semi-major
7,467.2 km
B*
-1.3234e-4
RAAN
150.5025°
Arg perigee
7.3230°
Mean anomaly
353.1665°
Rev number
39,900

§ Raw data

YAOGAN-31 01A1 43275U 18034A   26145.17130814 -.00000189  00000+0 -13234-3 0  99952 43275  63.3927 150.5025 0273418   7.3230 353.1665 13.45458322399008

JSON: /api/v1/satellites/43275 · /tle

For live sub-satellite position, see the globe view (requires WebGL).

§ Visibility from observer

Set your observer location to see the next 7 days of passes ≥ 10°. The values pass through the URL so the page stays shareable.

No JS? Fill the form by hand. The geolocation button needs JavaScript.